Weather in Batamshinskiy

Kazakhstan     50°33′44″N   58°16′44″E
temp.,
°C
wind,
m/s
gust,
m/s
humid.,
%
clouds,
%
prec.,
mm/h
press.,
hPa
HPBL,
m
10 april, sat
sat1023:00+2ese61484100 0.0 1028178
02:00+2ese5148693 0.0 1028174
05:00+1ese613875 0.0 1030171
08:00+1ese613881 0.0 1031171
11:00+2ese61210082 0.0 1032196
14:00+2ese611100100 0.0 1033213
17:00+2e611100100 0.0 1034231
20:00+1e7119996 0.0 1035213
11 april, sun
sun1123:00−2e6119846 0.0 1035168
02:00−3e5119969 0.0 1035171
05:00−1e51098100 0.0 1036266
08:00+1e59100100 0.0 1036290
11:00+2ese69100100 0.0 1036258
14:00+3ese6899100 0.0 1036232
17:00+5e58910 0.0 1035228
20:00+3e57850 0.0 103588
12 april, mon
mon1223:00+2e57820 0.0 103681
02:00+1e46800 0.0 103663
05:00+1ene45800 0.0 103661
08:00+1ene48800 0.0 1036152
11:00+6ene68630 0.0 1036261
14:00+10ene68534 0.0 1034426
17:00+11ene58545 0.0 1033494
20:00+6ene59715 0.0 1034118
13 april, tue
tue1323:00+3ene5107631 0.0 1035148
02:00+2ene596883 0.0 1036126
05:00+1ene59705 0.0 1036134
08:00+3ene611675 0.0 1036224
11:00+8ene710500 0.0 1035397
14:00+13ene79360 0.0 1033731
17:00+14ene78340 0.0 1032832
20:00+10ene510560 0.0 1032161
14 april, wed
wed1423:00+6ene511735 0.0 1033190
02:00+5ene49912 0.0 1032155
05:00+5ene48961 0.0 1031119
08:00+5ene599745 0.0 1031234
11:00+11ene797712 0.0 1029557
14:00+15ene78580 0.0 1026924
17:00+15ene67550 0.0 10241087
20:00+12ne48730 0.0 1024175